Regional Weather Roundup
Issued by NWS

Home | Current Version | Previous Version | Text Only | Print | Product List | Glossary Off
Versions: 1 2 3 4 5 6 7 8 9 10 11 12 13 14 15 16 17 18 19 20 21 22 23 24 25 26 27 28 29 30 31 32 33 34 35 36 37 38 39 40 41 42 43 44 45 46 47 48 49 50

000
ASUS43 KFSD 310702
RWRSD

WEATHER ROUNDUP FOR SOUTH DAKOTA
NATIONAL WEATHER SERVICE SIOUX FALLS SD
200 AM CDT FRI JUL 31 2015

NOTE: "FAIR" INDICATES FEW OR NO CLOUDS BELOW 12,000 FEET WITH NO
SIGNIFICANT WEATHER AND/OR OBSTRUCTIONS TO VISIBILITY.


SDZ001>005-009-010-012>017-310800-
NORTHWEST AND NORTH CENTRAL SOUTH DAKOTA

CITY           SKY/WX    TMP DP  RH WIND       PRES   REMARKS
BUFFALO          N/A     65  48  54 CALM      30.18R
FAITH            N/A     68  49  50 SE10      30.20S
MOBRIDGE       CLEAR     59  54  83 CALM      30.15R
$$

SDZ012>016-024>037-041>051-057-063-072>074-310800-
SOUTHWEST AND SOUTH CENTRAL SOUTH DAKOTA

CITY           SKY/WX    TMP DP  RH WIND       PRES   REMARKS
RAPID CTY ARPT CLEAR     60  51  72 N8        30.22S
PIERRE         CLEAR     63  54  72 E6        30.14S
CUSTER         CLEAR     54  44  69 NW5       30.38R
ELLSWORTH AFB  CLEAR     61  50  69 W6        30.22S
PHILIP         CLEAR     63  54  72 NE5       30.17S
PINE RIDGE     CLEAR     57  48  72 CALM      30.23S
WINNER         FAIR      72  52  49 SW6       30.16R
$$

SDZ004>011-016>023-039-040-310800-
NORTHEAST SOUTH DAKOTA

CITY           SKY/WX    TMP DP  RH WIND       PRES   REMARKS
ABERDEEN       CLEAR     56  53  90 SW3       30.13S
WATERTOWN      CLEAR     62  55  77 SW5       30.14S
BROOKINGS      CLEAR     66  57  72 CALM      30.16S
SISSETON         N/A     60  53  77 NW8       30.09R
$$

SDZ017-020-022-023-036>040-048>070-310800-
SOUTHEAST SOUTH DAKOTA

CITY           SKY/WX    TMP DP  RH WIND       PRES   REMARKS
SIOUX FALLS    CLEAR     67  59  75 S3        30.14S
HURON          PTCLDY    67  60  78 CALM      30.13F
CHAMBERLAIN    CLEAR     66  56  71 E6        30.15S
MITCHELL       CLEAR     66  60  81 N3        30.14S
YANKTON          N/A    N/A N/A N/A MISG        N/A
$$

ABBREVIATIONS USED IN REMARKS
   TC - TEMPERATURE IN CELSIUS
  WCI - WIND CHILL INDEX
   HX - HEAT INDEX
  VSB - VISIBILITY



USA.gov is the U.S. government's official web portal to all federal, state and local government web resources and services.